Chicago DuPage, IL

7:16 PM CDT on June 24, 2017 (GMT -0500)
Du Page

Weather History for KDPA - February, 2013

Change the Weather History Date:

Tuesday, February 26, 2013

  Actual Average Record
Temperature  
Mean Temperature 33 °F 31 °F  
Max Temperature 35 °F 40 °F 63 °F (1998)
Min Temperature 31 °F 23 °F -3 °F (2015)
Degree Days  
Heating Degree Days 32 34  
Month to date heating degree days 1056 974  
Since 1 July heating degree days 4663 4689  
Cooling Degree Days 0 0  
Month to date cooling degree days 0 0  
Year to date cooling degree days 0 0  
Moisture  
Dew Point 29 °F    
Average Humidity 86    
Maximum Humidity 100    
Minimum Humidity 67    
Precipitation  
Precipitation 0.09 in 0.07 in 1.77 in (2009)
Month to date precipitation 1.47 1.30  
Year to date precipitation 4.47 2.61  
Sea Level Pressure  
Sea Level Pressure 29.60 in    
Wind  
Wind Speed 20 mph (NE)    
Max Wind Speed 30 mph    
Max Gust Speed 40 mph    
Visibility 4 miles    
Events Fog , Snow    
T = Trace of Precipitation, MM = Missing Value Source: NWS Daily Summary

Daily Weather History Graph

Daily Weather History Graph

Search for Another Location

Airport or City:

Trip Planner

Search our weather history database for the weather conditions in past years. The results will help you decide how hot, cold, wet, or windy it might be!

Date:

Astronomy

Feb. 26, 2013 Rise Set
Actual Time 6:32 AM CST 5:39 PM CST
Civil Twilight 6:04 AM CST 6:08 PM CST
Nautical Twilight 5:31 AM CST 6:40 PM CST
Astronomical Twilight 4:59 AM CST 7:12 PM CST
Moon 6:58 PM CST (2/26) 6:33 AM CST (2/26)
Length of Visible Light 12h 03m
Length of Day
11h 07m
Full, 99% of the Moon is Illuminated
Feb 26
Full
Mar 4
Last Quarter
Mar 11
New
Mar 19
First Quarter
Mar 27
Full

Hourly Weather History & Observations

Time (CST) Temp. Windchill Dew Point Humidity Pressure Visibility Wind Dir Wind Speed Gust Speed Precip Events Conditions
12:52 AM 35.1 °F 26.4 °F 27.0 °F 72% 29.94 in 10.0 mi ENE 12.7 mph - N/A   Clear
1:52 AM 35.1 °F 24.5 °F 27.0 °F 72% 29.91 in 10.0 mi ENE 18.4 mph 23.0 mph N/A   Clear
2:52 AM 34.0 °F 24.2 °F 27.0 °F 75% 29.86 in 10.0 mi ENE 15.0 mph 20.7 mph N/A   Clear
3:52 AM 34.0 °F 23.8 °F 27.0 °F 75% 29.82 in 10.0 mi ENE 16.1 mph 23.0 mph N/A   Clear
4:52 AM 34.0 °F 22.4 °F 27.0 °F 75% 29.79 in 10.0 mi ENE 20.7 mph 28.8 mph N/A   Clear
5:52 AM 34.0 °F 23.4 °F 26.1 °F 73% 29.77 in 10.0 mi ENE 17.3 mph 28.8 mph N/A   Scattered Clouds
6:52 AM 34.0 °F 23.0 °F 26.1 °F 73% 29.77 in 10.0 mi ENE 18.4 mph 28.8 mph N/A   Overcast
7:52 AM 34.0 °F 22.1 °F 26.1 °F 73% 29.75 in 10.0 mi ENE 21.9 mph 33.4 mph N/A   Mostly Cloudy
9:52 AM 35.1 °F 23.0 °F 26.1 °F 70% 29.62 in 10.0 mi NE 24.2 mph 32.2 mph N/A   Overcast
10:52 AM 35.1 °F 23.3 °F 25.0 °F 67% 29.61 in 9.0 mi ENE 23.0 mph 32.2 mph N/A   Overcast
10:58 AM 33.8 °F 21.3 °F 26.6 °F 75% 29.59 in 1.8 mi ENE 24.2 mph 32.2 mph 0.00 in Snow Light Snow
11:05 AM 33.8 °F 20.5 °F 28.4 °F 81% 29.59 in 1.0 mi ENE 27.6 mph 38.0 mph 0.00 in Snow Light Snow
11:11 AM 32.0 °F 19.2 °F 28.4 °F 87% 29.60 in 0.5 mi NE 23.0 mph 40.3 mph 0.01 in Fog , Snow Snow
11:44 AM 32.0 °F 20.5 °F 30.2 °F 93% 29.60 in 0.2 mi ENE 18.4 mph 26.5 mph 0.02 in Fog , Snow Heavy Snow
11:52 AM 32.0 °F 20.8 °F 30.0 °F 92% 29.62 in 0.2 mi NE 17.3 mph 25.3 mph 0.03 in Fog , Snow Heavy Snow
12:23 PM 32.0 °F 18.9 °F 30.2 °F 93% 29.55 in 0.5 mi NE 24.2 mph 32.2 mph 0.02 in Fog , Snow Snow
12:52 PM 32.0 °F 18.1 °F 30.0 °F 92% 29.56 in 0.2 mi NE 27.6 mph 34.5 mph 0.04 in Fog , Snow Heavy Snow
1:13 PM 32.0 °F 18.9 °F 30.2 °F 93% 29.53 in 0.5 mi NE 24.2 mph 32.2 mph 0.01 in Fog , Snow Light Snow
1:32 PM 32.0 °F 18.9 °F 30.2 °F 93% 29.52 in 0.2 mi NE 24.2 mph 35.7 mph 0.02 in Fog , Snow Heavy Snow
1:41 PM 30.2 °F 17.4 °F 30.2 °F 100% 29.52 in 0.2 mi NE 20.7 mph 33.4 mph 0.03 in Fog , Snow Heavy Snow
2:07 PM 32.0 °F 19.2 °F 30.2 °F 93% 29.53 in 0.8 mi NE 23.0 mph 29.9 mph 0.01 in Snow Light Snow
2:15 PM 32.0 °F 19.8 °F 30.2 °F 93% 29.53 in 1.0 mi NE 20.7 mph 29.9 mph 0.01 in Snow Light Snow
2:22 PM 32.0 °F 20.1 °F 30.2 °F 93% 29.52 in 1.0 mi NE 19.6 mph 27.6 mph 0.01 in Snow Light Snow
2:32 PM 32.0 °F 19.8 °F 30.2 °F 93% 29.52 in 0.8 mi NE 20.7 mph 31.1 mph 0.01 in Snow Light Snow
2:52 PM 32.0 °F 20.1 °F 30.0 °F 92% 29.54 in 0.8 mi NE 19.6 mph 35.7 mph 0.01 in Snow Light Snow
3:52 PM 32.0 °F 19.8 °F 30.0 °F 92% 29.55 in 0.8 mi NE 20.7 mph 28.8 mph 0.00 in Snow Light Snow
4:52 PM 32.0 °F 19.2 °F 30.9 °F 96% 29.55 in 0.5 mi NE 23.0 mph 31.1 mph 0.00 in Fog , Snow Snow
5:32 PM 33.8 °F 21.9 °F 30.2 °F 87% 29.52 in 1.5 mi NE 21.9 mph - 0.00 in Snow Light Snow
5:52 PM 33.1 °F 21.9 °F 30.0 °F 89% 29.55 in 2.0 mi NE 18.4 mph 31.1 mph 0.00 in Snow Light Snow
6:04 PM 33.8 °F 22.2 °F 30.2 °F 87% 29.53 in 1.0 mi NE 20.7 mph 28.8 mph 0.00 in Snow Light Snow
6:10 PM 33.8 °F 21.9 °F 30.2 °F 87% 29.53 in 0.8 mi NE 21.9 mph 28.8 mph 0.00 in Snow Light Snow
6:17 PM 33.8 °F 21.6 °F 30.2 °F 87% 29.53 in 0.8 mi NE 23.0 mph 31.1 mph 0.01 in Snow Light Snow
6:28 PM 33.8 °F 23.2 °F 30.2 °F 87% 29.54 in 1.2 mi NE 17.3 mph 26.5 mph 0.01 in Snow Light Snow
6:50 PM 33.8 °F 23.2 °F 30.2 °F 87% 29.54 in 3.0 mi NE 17.3 mph 26.5 mph 0.01 in Snow Light Snow
6:52 PM 33.1 °F 22.2 °F 30.9 °F 92% 29.56 in 3.0 mi NE 17.3 mph - 0.01 in Snow Light Snow
7:05 PM 33.8 °F 22.8 °F 30.2 °F 87% 29.54 in 3.0 mi NE 18.4 mph 28.8 mph 0.00 in Snow Light Snow
7:52 PM 33.1 °F 21.5 °F 30.9 °F 92% 29.55 in 3.0 mi NE 19.6 mph - 0.00 in Snow Light Snow
8:52 PM 33.1 °F 21.5 °F 30.9 °F 92% 29.55 in 4.0 mi NE 19.6 mph 25.3 mph 0.00 in Snow Light Snow
9:52 PM 33.1 °F 22.6 °F 30.9 °F 92% 29.55 in 10.0 mi NE 16.1 mph - 0.00 in   Overcast
10:52 PM 33.1 °F 23.4 °F 30.9 °F 92% 29.54 in 4.0 mi NNE 13.8 mph - 0.00 in Snow Light Snow
11:12 PM 33.8 °F 24.8 °F 30.2 °F 87% 29.52 in 2.0 mi NNE 12.7 mph - 0.00 in Snow Light Snow
11:21 PM 33.8 °F 24.8 °F 30.2 °F 87% 29.52 in 1.8 mi NNE 12.7 mph - 0.00 in Snow Light Snow
11:32 PM 33.8 °F 24.8 °F 32.0 °F 93% 29.52 in 1.8 mi NNE 12.7 mph - 0.00 in Snow Light Snow
11:52 PM 33.1 °F 24.4 °F 32.0 °F 96% 29.55 in 2.0 mi North 11.5 mph - 0.00 in Snow Light Snow